QPF
0.00 0.00 0.00 0.00 0.00 0.00 0.00 0.00 0.00 0.00 0.00 0.00 0.00 0.00 0.00 0.00 0.00 0.00 0.00 0.00 0.00 0.00 0.00 0.00 0.00 0.00 0.00 0.00 0.00 0.00 0.00 0.00 0.00 0.00 0.00 0.00 0.00 0.00 0.00 0.00 0.00 0.00 0.02 0.01
0.00 0.00 0.00 0.00 0.00 0.00 0.00 0.00 0.00 0.00 0.00 0.00 0.00 0.00 0.00 0.00 0.00 0.00 0.00 0.00 0.00 0.00 0.00 0.00 0.00 0.00 0.00 0.00 0.00 0.00 0.00 0.00 0.00 0.00 0.00 0.00 0.00 0.00 0.00 0.00 0.01 0.02 0.10 0.09
0.00 0.00 0.00 0.00 0.00 0.00 0.00 0.00 0.00 0.00 0.00 0.00 0.00 0.00 0.00 0.00 0.00 0.00 0.00 0.00 0.00 0.00 0.00 0.00 0.00 0.00 0.00 0.00 0.00 0.00 0.00 0.00 0.00 0.00 0.00 0.00 0.03 0.06 0.00 0.00 0.01 0.01 0.04 0.07
0.00 0.00 0.00 0.00 0.00 0.00 0.00 0.00 0.00 0.00 0.00 0.00 0.00 0.00 0.00 0.00 0.00 0.00 0.00 0.00 0.00 0.00 0.00 0.00 0.00 0.00 0.00 0.00 0.00 0.00 0.00 0.00 0.00 0.00 0.00 0.00 0.02 0.01 0.00 0.00 0.01 0.02 0.02 0.01
0.00 0.00 0.00 0.00 0.00 0.00 0.00 0.00 0.00 0.00 0.00 0.00 0.00 0.00 0.00 0.00 0.00 0.00 0.00 0.00 0.00 0.00 0.00 0.00 0.00 0.00 0.00 0.00 0.00 0.00 0.00 0.00 0.00 0.00 0.00 0.00 0.00 0.00 0.00 0.00 0.00 0.03 0.04 0.01
0.00 0.00 0.00 0.00 0.00 0.00 0.00 0.00 0.00 0.00 0.00 0.00 0.00 0.00 0.00 0.00 0.00 0.00 0.00 0.00 0.00 0.00 0.00 0.00 0.00 0.00 0.00 0.00 0.00 0.00 0.00 0.00 0.00 0.00 0.00 0.00 0.00 0.00 0.00 0.00 0.01 0.03 0.02 0.00
0.00 0.00 0.00 0.00 0.00 0.00 0.00 0.00 0.00 0.00 0.00 0.00 0.00 0.00 0.00 0.00 0.00 0.00 0.00 0.00 0.00 0.00 0.00 0.00 0.00 0.00 0.00 0.00 0.00 0.00 0.00 0.00 0.00 0.00 0.00 0.00 0.00 0.00 0.00 0.00 0.00 0.00 0.00 0.00
0.00 0.00 0.00 0.00 0.00 0.00 0.00 0.00 0.00 0.00 0.00 0.00 0.00 0.00 0.00 0.00 0.00 0.00 0.00 0.00 0.00 0.00 0.00 0.00 0.00 0.00 0.00 0.00 0.00 0.00 0.00 0.00 0.00 0.00 0.00 0.00 0.00 0.00 0.00 0.00 0.00 0.00 0.00 0.00
0.00 0.00 0.00 0.00 0.00 0.00 0.00 0.00 0.00 0.00 0.00 0.00 0.00 0.00 0.00 0.00 0.00 0.00 0.00 0.00 0.00 0.00 0.00 0.00 0.00 0.00 0.00 0.00 0.00 0.00 0.00 0.00 0.00 0.00 0.00 0.00 0.00 0.01 0.02 0.00 0.00 0.00 0.00 0.00
0.00 0.00 0.00 0.00 0.00 0.00 0.00 0.00 0.00 0.00 0.00 0.00 0.00 0.00 0.00 0.00 0.00 0.00 0.00 0.00 0.00 0.00 0.00 0.00 0.00 0.00 0.00 0.00 0.00 0.00 0.00 0.00 0.00 0.00 0.00 0.00 0.00 0.04 0.04 0.00 0.00 0.00 0.00 0.00
0.00 0.00 0.00 0.00 0.00 0.00 0.00 0.00 0.00 0.00 0.00 0.00 0.00 0.00 0.00 0.00 0.00 0.00 0.00 0.00 0.00 0.00 0.00 0.00 0.00 0.00 0.00 0.00 0.00 0.00 0.00 0.00 0.00 0.00 0.00 0.00 0.00 0.01 0.02 0.00 0.00 0.00 0.00 0.02
0.00 0.00 0.00 0.00 0.00 0.00 0.00 0.00 0.00 0.00 0.00 0.00 0.00 0.00 0.00 0.00 0.00 0.00 0.00 0.00 0.00 0.00 0.00 0.00 0.00 0.00 0.00 0.00 0.00 0.00 0.00 0.00 0.00 0.00 0.00 0.00 0.07 0.07 0.05 0.01 0.00 0.00 0.01 0.04
0.00 0.00 0.00 0.00 0.00 0.00 0.00 0.00 0.00 0.00 0.00 0.00 0.00 0.00 0.00 0.00 0.00 0.00 0.00 0.00 0.00 0.00 0.00 0.00 0.00 0.00 0.00 0.00 0.00 0.00 0.00 0.00 0.00 0.00 0.00 0.00 0.00 0.00 0.00 0.00 0.00 0.01 0.04 0.05
0.00 0.00 0.00 0.00 0.00 0.00 0.00 0.00 0.00 0.00 0.00 0.00 0.00 0.00 0.00 0.00 0.00 0.00 0.00 0.00 0.00 0.00 0.00 0.00 0.00 0.00 0.00 0.00 0.00 0.00 0.00 0.00 0.00 0.00 0.00 0.00 0.00 0.00 0.00 0.00 0.00 0.02 0.03 0.01
0.00 0.00 0.00 0.00 0.00 0.00 0.00 0.00 0.00 0.00 0.00 0.00 0.00 0.00 0.00 0.00 0.00 0.00 0.00 0.00 0.00 0.00 0.00 0.00 0.00 0.00 0.00 0.00 0.00 0.00 0.00 0.00 0.00 0.00 0.00 0.00 0.00 0.00 0.02 0.01 0.01 0.02 0.01 0.00
0.00 0.00 0.00 0.00 0.00 0.00 0.00 0.00 0.00 0.00 0.00 0.00 0.00 0.00 0.00 0.00 0.00 0.00 0.00 0.00 0.00 0.00 0.00 0.00 0.00 0.00 0.00 0.00 0.00 0.00 0.00 0.00 0.00 0.00 0.00 0.00 0.00 0.01 0.08 0.16 0.06 0.00 0.04 0.03
0.00 0.00 0.00 0.00 0.00 0.00 0.00 0.00 0.00 0.00 0.00 0.00 0.00 0.00 0.00 0.00 0.00 0.00 0.00 0.00 0.00 0.00 0.00 0.00 0.00 0.00 0.00 0.00 0.00 0.00 0.00 0.00 0.00 0.00 0.00 0.00 0.00 0.00 0.01 0.04 0.03 0.02 0.06 0.05
0.00 0.00 0.00 0.00 0.00 0.00 0.00 0.00 0.00 0.00 0.00 0.00 0.00 0.00 0.00 0.00 0.00 0.00 0.00 0.00 0.00 0.00 0.00 0.00 0.00 0.00 0.00 0.00 0.00 0.00 0.00 0.00 0.00 0.00 0.00 0.00 0.00 0.00 0.00 0.00 0.02 0.04 0.04 0.02
0.00 0.00 0.00 0.00 0.00 0.00 0.00 0.00 0.00 0.00 0.00 0.00 0.00 0.00 0.00 0.00 0.00 0.00 0.00 0.00 0.00 0.00 0.00 0.00 0.00 0.00 0.00 0.00 0.00 0.00 0.00 0.00 0.00 0.00 0.00 0.00 0.00 0.01 0.00 0.01 0.02 0.00 0.00 0.00
0.00 0.00 0.00 0.00 0.00 0.00 0.00 0.00 0.00 0.00 0.00 0.00 0.00 0.00 0.00 0.00 0.00 0.00 0.00 0.00 0.00 0.00 0.00 0.00 0.00 0.00 0.00 0.00 0.00 0.00 0.00 0.00 0.00 0.00 0.00 0.00 0.01 0.00 0.00 0.00 0.00 0.00 0.00 0.00
0.00 0.00 0.00 0.00 0.00 0.00 0.00 0.00 0.00 0.00 0.00 0.00 0.00 0.00 0.00 0.00 0.00 0.00 0.00 0.00 0.00 0.00 0.00 0.00 0.00 0.00 0.00 0.00 0.00 0.00 0.00 0.00 0.00 0.00 0.00 0.01 0.01 0.01 0.00 0.00 0.00 0.00 0.00 0.00
0.00 0.00 0.00 0.00 0.00 0.00 0.00 0.00 0.00 0.00 0.00 0.00 0.00 0.00 0.00 0.00 0.00 0.00 0.00 0.00 0.00 0.00 0.00 0.00 0.00 0.00 0.00 0.00 0.00 0.00 0.00 0.00 0.00 0.00 0.00 0.01 0.01 0.00 0.00 0.00 0.00 0.00 0.00 0.00
0.00 0.00 0.00 0.00 0.01 0.00 0.00 0.00 0.00 0.00 0.00 0.00 0.00 0.00 0.00 0.00 0.00 0.00 0.00 0.00 0.00 0.00 0.00 0.00 0.00 0.00 0.00 0.00 0.00 0.00 0.00 0.00 0.00 0.00 0.01 0.01 0.00 0.00 0.00 0.00 0.00 0.00 0.00 0.00
0.00 0.00 0.00 0.00 0.00 0.00 0.00 0.00 0.00 0.00 0.00 0.00 0.00 0.00 0.00 0.00 0.00 0.00 0.00 0.00 0.00 0.00 0.00 0.00 0.01 0.01 0.00 0.00 0.00 0.00 0.00 0.00 0.00 0.01 0.01 0.00 0.00 0.00 0.00 0.00 0.00 0.00 0.00 0.00
0.00 0.00 0.00 0.00 0.00 0.00 0.00 0.00 0.00 0.00 0.00 0.00 0.00 0.00 0.00 0.00 0.00 0.00 0.00 0.00 0.00 0.00 0.00 0.01 0.01 0.00 0.00 0.00 0.00 0.00 0.00 0.00 0.00 0.00 0.00 0.00 0.00 0.00 0.00 0.00 0.00 0.00 0.00 0.00
0.00 0.00 0.00 0.00 0.00 0.00 0.01 0.00 0.00 0.00 0.00 0.00 0.00 0.00 0.00 0.00 0.00 0.00 0.00 0.00 0.00 0.00 0.00 0.00 0.00 0.00 0.00 0.00 0.00 0.00 0.00 0.00 0.00 0.00 0.00 0.00 0.00 0.00 0.00 0.00 0.00 0.00 0.00 0.00
MSLP
1000.50 999.93 999.10 998.71 998.46 997.73 997.57 997.53 997.43 997.95 999.08 999.09 998.34 998.23 998.32 999.48 1000.33 1000.72 1001.57 1002.62 1003.38 1003.93 1004.48 1005.28 1006.29 1006.85 1007.61 1008.90 1010.01 1010.62 1010.83 1011.13 1011.59 1011.96 1012.13 1012.26 1012.14 1012.16 1012.49 1012.50 1012.35 1012.79 1013.02 1013.28
999.56 998.98 998.69 998.49 998.12 997.93 997.78 998.29 997.67 997.64 998.41 999.00 998.36 997.91 997.74 998.33 999.33 999.96 1000.41 1001.29 1002.45 1003.18 1003.68 1004.52 1005.46 1006.14 1007.04 1007.86 1008.95 1009.98 1010.43 1010.93 1011.50 1011.48 1011.69 1011.54 1011.77 1012.07 1012.50 1012.67 1012.73 1012.95 1013.27 1013.55
998.68 998.16 998.50 998.37 997.99 997.98 998.10 998.16 997.56 998.04 997.93 998.51 998.04 997.20 996.89 997.07 997.89 998.86 999.52 1000.10 1001.03 1002.00 1002.71 1003.45 1004.40 1005.31 1006.18 1007.11 1008.03 1008.94 1009.93 1010.53 1011.06 1011.02 1011.40 1011.68 1011.79 1012.33 1012.61 1012.67 1013.08 1013.23 1013.40 1013.57
998.87 998.69 998.38 998.17 997.96 998.32 998.00 998.08 998.09 997.82 998.51 997.67 997.27 996.43 997.23 996.04 997.03 997.47 998.27 998.93 999.67 1000.91 1001.81 1002.33 1003.05 1004.20 1005.13 1006.17 1007.29 1008.19 1009.24 1010.03 1010.69 1010.96 1010.77 1011.12 1011.33 1011.89 1011.96 1012.18 1012.99 1013.10 1013.09 1013.32
998.52 998.59 998.30 998.65 998.40 998.52 998.08 997.95 997.67 997.91 998.19 997.80 997.10 996.45 995.26 996.35 995.90 995.84 996.97 997.60 998.61 999.51 1000.69 1001.51 1002.02 1003.06 1004.04 1005.12 1006.21 1007.47 1008.68 1009.76 1010.26 1010.78 1010.94 1011.04 1011.33 1011.16 1011.46 1011.98 1012.75 1013.11 1013.42 1013.22
998.88 998.49 998.77 998.45 998.50 998.35 998.38 998.24 998.11 998.46 998.15 997.25 996.47 995.99 995.00 995.57 999.13 994.97 995.55 996.22 997.47 998.48 999.70 1000.62 1001.35 1001.91 1003.17 1004.40 1005.68 1006.95 1008.29 1009.36 1010.19 1010.59 1011.09 1011.03 1011.09 1011.00 1011.18 1011.81 1012.50 1013.09 1013.17 1013.02
998.59 998.36 998.83 998.95 998.41 998.21 998.48 998.19 997.56 997.54 996.99 996.29 995.76 995.30 994.61 994.46 994.73 994.79 995.31 995.71 996.71 997.80 998.77 999.72 1000.67 1001.30 1002.54 1003.94 1005.40 1006.83 1008.14 1009.12 1009.82 1010.30 1010.74 1011.06 1011.11 1011.53 1011.58 1011.91 1011.77 1011.65 1011.92 1012.75
997.04 997.03 997.72 998.24 998.35 997.71 997.82 997.61 996.89 996.34 995.84 995.20 994.83 994.53 994.25 994.34 994.39 994.76 995.14 995.40 996.36 997.09 998.08 999.09 1000.02 1001.07 1002.38 1003.83 1005.17 1006.40 1007.81 1008.87 1009.49 1010.01 1010.51 1010.98 1011.21 1011.34 1011.39 1011.55 1011.00 1011.34 1011.89 1012.82
996.38 996.78 997.52 997.77 997.97 998.21 997.01 997.31 997.06 996.20 995.57 995.13 995.24 998.22 995.20 994.55 994.49 994.32 994.38 994.98 995.73 996.62 997.52 998.61 999.40 1000.56 1002.01 1003.70 1004.95 1006.03 1007.33 1008.27 1008.95 1009.52 1010.17 1010.53 1010.94 1010.80 1010.76 1011.31 1011.86 1012.09 1012.40 1013.32
996.92 997.04 997.02 997.16 998.17 997.87 997.37 996.56 996.62 996.36 995.73 995.20 994.74 995.37 994.09 994.26 994.18 994.35 994.20 995.07 994.86 996.25 997.14 997.91 998.90 1000.11 1001.55 1003.23 1004.76 1005.73 1006.79 1007.53 1008.19 1008.95 1009.71 1010.05 1010.41 1010.82 1011.36 1011.89 1012.13 1012.32 1012.86 1013.35
997.68 997.23 996.82 997.40 997.34 996.75 997.22 996.95 996.81 995.96 995.64 995.37 994.78 994.61 995.06 993.71 993.91 994.19 994.42 994.72 995.16 995.60 996.80 997.48 998.58 1000.00 1001.45 1002.71 1004.11 1005.15 1006.22 1007.00 1007.94 1008.49 1009.23 1009.70 1010.06 1010.63 1011.29 1011.71 1012.25 1012.78 1013.26 1013.53
997.91 997.05 996.17 996.00 996.01 996.83 996.31 996.24 996.44 995.62 995.57 994.72 994.58 994.98 995.70 993.87 993.84 994.01 994.24 994.86 995.62 996.17 996.39 997.51 998.49 999.99 1001.40 1002.56 1003.63 1004.66 1005.75 1006.77 1007.56 1008.08 1008.84 1009.61 1009.93 1010.58 1010.85 1011.35 1012.07 1012.53 1013.19 1013.84
997.94 997.54 996.09 995.80 995.82 996.48 996.57 996.33 995.66 995.61 994.91 994.53 994.29 994.55 993.51 993.39 993.64 993.96 994.41 994.89 995.92 996.84 996.87 997.83 998.68 1000.12 1001.46 1002.53 1003.49 1004.39 1005.49 1006.22 1006.90 1008.11 1008.72 1009.34 1010.26 1010.80 1010.81 1011.17 1011.93 1012.29 1013.24 1013.93
999.33 997.53 996.32 995.26 995.54 995.66 995.85 996.24 996.18 995.58 994.69 994.03 993.77 993.41 993.13 993.46 993.95 994.14 994.82 995.52 996.20 997.07 997.66 998.21 999.40 1000.77 1002.00 1003.14 1004.07 1004.63 1005.38 1006.06 1006.88 1007.97 1008.47 1008.90 1009.52 1009.92 1010.23 1010.82 1011.60 1012.57 1013.35 1014.18
998.90 997.48 996.86 996.44 996.41 996.48 996.43 995.82 995.49 995.60 995.17 994.48 993.77 994.62 994.06 993.84 994.41 994.41 995.46 996.27 996.61 997.47 998.13 998.66 999.91 1001.08 1002.40 1003.53 1004.44 1005.09 1005.63 1006.33 1007.34 1007.96 1008.44 1009.20 1009.71 1010.42 1010.71 1011.28 1010.35 1012.73 1013.74 1014.49
998.48 997.95 997.76 997.22 997.00 996.21 996.31 996.15 995.74 995.22 994.84 995.12 994.67 994.19 993.91 994.37 994.57 995.02 995.91 996.78 997.10 997.69 998.32 999.11 1000.06 1001.43 1002.79 1003.87 1004.54 1005.33 1006.21 1006.97 1007.78 1008.39 1009.22 1010.10 1010.95 1011.45 1011.92 1012.69 1012.32 1013.16 1014.04 1014.77
997.91 997.77 997.79 997.23 997.00 996.63 995.86 995.42 995.43 995.18 994.98 994.94 994.60 994.49 994.51 994.70 995.08 995.45 995.98 996.90 997.08 997.82 998.57 999.41 1000.35 1001.86 1002.78 1003.60 1004.37 1005.45 1006.50 1007.45 1008.15 1008.85 1009.84 1010.74 1011.31 1012.17 1012.60 1013.46 1013.84 1014.36 1014.65 1014.96
998.65 998.69 998.63 998.12 997.99 996.92 995.90 995.65 995.72 995.06 994.98 994.98 994.84 994.82 995.00 995.38 995.60 995.53 995.54 996.74 997.06 997.86 998.71 999.79 1000.74 1001.73 1002.76 1003.47 1004.48 1005.74 1006.71 1007.71 1008.29 1008.91 1009.80 1010.70 1011.52 1012.28 1012.97 1013.71 1013.86 1014.35 1014.57 1014.91
998.84 999.10 999.05 998.56 997.76 997.22 996.59 996.41 997.41 997.45 995.99 996.50 996.37 995.85 995.77 995.81 995.84 996.55 997.34 997.64 997.46 998.01 999.20 1000.18 1001.32 1002.18 1002.85 1003.68 1004.77 1005.77 1006.73 1007.72 1008.36 1009.15 1009.53 1010.42 1010.92 1012.07 1012.92 1013.30 1013.72 1014.05 1014.62 1015.44
999.24 999.15 999.81 999.50 998.78 997.71 996.90 997.66 997.89 997.43 997.06 998.07 998.31 998.01 997.78 997.68 997.18 998.21 998.95 998.89 998.40 998.47 999.51 1000.26 1001.37 1002.34 1003.34 1004.29 1005.11 1005.84 1006.83 1007.78 1008.41 1009.01 1009.62 1010.49 1011.06 1011.87 1012.47 1012.84 1013.53 1014.28 1014.96 1015.50
999.18 999.62 999.49 999.06 999.10 998.39 998.60 998.40 998.32 998.18 999.10 999.34 999.42 999.24 999.26 999.00 999.05 999.28 999.75 999.74 999.38 999.36 999.91 1000.45 1001.08 1002.16 1003.29 1004.36 1005.39 1005.83 1006.65 1007.56 1008.42 1009.02 1009.66 1010.63 1011.58 1012.13 1012.67 1013.15 1013.78 1014.37 1014.81 1015.55
999.48 999.58 999.30 999.26 999.77 999.87 1000.05 999.15 999.40 999.62 999.77 1000.07 1000.13 1000.18 1000.01 999.83 999.49 1000.33 1000.84 1000.71 1000.15 999.98 1000.08 1000.50 1000.98 1002.27 1003.31 1004.50 1005.46 1005.97 1006.69 1007.55 1008.50 1009.25 1009.88 1010.62 1011.23 1011.91 1012.82 1013.37 1013.95 1014.52 1015.30 1015.83
999.74 999.80 999.83 1000.99 1000.94 1002.71 1002.19 1000.03 1000.65 1000.22 1000.22 1000.35 1000.43 1000.31 1000.14 999.80 999.59 1000.38 1001.31 1001.19 1000.48 1000.60 1000.76 1001.20 1001.98 1002.90 1003.82 1004.74 1005.38 1005.90 1007.00 1007.95 1008.68 1009.27 1009.96 1010.68 1011.46 1012.30 1012.92 1013.40 1014.16 1014.61 1015.34 1015.71
1001.10 1000.75 1000.37 1000.35 1000.20 1000.61 1000.55 1000.73 1000.87 1000.70 1000.78 1000.68 1000.31 1000.00 999.93 999.75 999.63 1000.20 1001.42 1001.69 1001.06 1001.40 1001.66 1002.11 1002.71 1003.97 1004.55 1005.19 1005.78 1006.39 1007.62 1008.35 1008.98 1009.82 1010.77 1011.39 1011.77 1012.23 1012.84 1013.20 1013.82 1014.11 1014.60 1014.97
1000.23 1001.13 1000.60 1000.58 1000.49 1000.38 1000.73 1000.71 1000.85 1000.89 1000.81 1000.66 1000.41 1000.03 999.75 999.62 999.38 1000.14 1001.30 1002.17 1002.28 1002.25 1002.23 1002.69 1003.57 1004.16 1004.56 1005.31 1006.16 1007.07 1007.92 1008.82 1009.34 1010.07 1010.95 1011.44 1011.89 1011.96 1012.55 1012.70 1013.32 1013.48 1014.20 1014.63
1000.77 1000.53 1000.78 1000.55 1001.00 1000.83 1001.81 1001.03 1001.18 1000.77 1000.59 1000.58 1000.55 1000.13 999.84 999.77 999.40 1000.29 1001.47 1002.63 1003.09 1003.08 1003.22 1003.14 1003.63 1004.57 1005.11 1006.06 1006.71 1007.53 1008.19 1008.82 1009.31 1009.78 1010.41 1010.93 1011.37 1011.92 1012.23 1013.04 1013.74 1014.36 1014.67 1015.20
Thickness
5851 5834 5828 5846 5862 5874 5873 5865 5861 5866 5866 5857 5864 5867 5873 5871 5864 5859 5856 5849 5844 5841 5846 5844 5836 5833 5826 5814 5802 5798 5796 5796 5794 5790 5787 5786 5786 5789 5787 5787 5787 5783 5780 5777
5841 5828 5855 5866 5871 5868 5867 5849 5858 5875 5871 5858 5860 5862 5881 5875 5868 5867 5864 5859 5850 5847 5847 5845 5841 5837 5830 5823 5815 5805 5802 5799 5794 5795 5794 5796 5794 5792 5789 5786 5785 5783 5778 5774
5833 5851 5862 5855 5858 5851 5850 5845 5859 5848 5868 5865 5861 5856 5868 5881 5880 5877 5875 5874 5867 5857 5851 5849 5845 5841 5838 5829 5824 5817 5810 5806 5802 5804 5802 5799 5798 5792 5786 5786 5782 5780 5777 5774
5837 5856 5849 5847 5843 5849 5832 5865 5861 5859 5838 5827 5872 5829 5836 5874 5869 5874 5874 5875 5873 5865 5863 5861 5856 5848 5844 5838 5834 5827 5819 5813 5809 5807 5807 5801 5796 5787 5791 5790 5783 5779 5778 5776
5830 5837 5840 5828 5838 5850 5838 5867 5866 5856 5842 5845 5852 5844 5873 5875 5872 5875 5876 5880 5879 5876 5870 5863 5863 5859 5855 5849 5841 5832 5822 5814 5812 5807 5805 5801 5795 5798 5796 5791 5782 5778 5776 5775
5834 5859 5845 5844 5851 5854 5859 5849 5850 5844 5840 5817 5852 5855 5859 5872 5796 5880 5891 5889 5885 5882 5876 5872 5871 5870 5859 5854 5844 5834 5822 5813 5809 5806 5801 5799 5795 5796 5792 5786 5778 5775 5776 5777
5825 5832 5842 5847 5832 5849 5841 5830 5808 5802 5811 5813 5869 5857 5868 5894 5886 5890 5886 5889 5889 5886 5881 5876 5870 5869 5861 5852 5843 5832 5820 5811 5809 5805 5801 5796 5795 5790 5787 5783 5783 5785 5783 5776
5814 5807 5833 5846 5833 5831 5831 5834 5816 5787 5809 5835 5878 5849 5861 5896 5899 5898 5894 5895 5891 5887 5885 5880 5876 5870 5862 5852 5842 5832 5821 5810 5808 5804 5799 5796 5793 5791 5788 5787 5792 5788 5782 5774
5824 5816 5842 5845 5846 5840 5837 5816 5852 5837 5854 5842 5851 5785 5861 5891 5887 5896 5898 5894 5885 5886 5884 5880 5881 5874 5864 5851 5841 5833 5822 5813 5809 5805 5801 5798 5795 5794 5792 5788 5784 5781 5777 5768
5834 5803 5836 5841 5840 5843 5837 5862 5821 5831 5799 5801 5844 5840 5854 5867 5873 5884 5893 5882 5891 5885 5883 5884 5881 5875 5867 5855 5843 5836 5827 5818 5814 5809 5804 5801 5798 5794 5787 5782 5777 5775 5770 5766
5832 5823 5823 5830 5818 5821 5822 5820 5828 5845 5841 5813 5816 5839 5865 5875 5876 5878 5886 5892 5889 5891 5882 5884 5880 5875 5866 5858 5846 5837 5829 5821 5814 5810 5805 5800 5797 5792 5786 5780 5774 5769 5764 5762
5830 5830 5817 5826 5850 5846 5845 5833 5832 5818 5813 5844 5838 5834 5852 5880 5887 5887 5889 5889 5885 5886 5887 5884 5880 5871 5863 5854 5847 5839 5830 5820 5814 5811 5805 5797 5794 5788 5785 5779 5773 5769 5762 5758
5829 5813 5808 5815 5836 5838 5822 5833 5848 5848 5855 5832 5822 5819 5893 5892 5887 5888 5884 5884 5878 5876 5882 5879 5875 5865 5859 5852 5846 5839 5830 5824 5819 5806 5801 5795 5785 5780 5777 5773 5767 5767 5758 5753
5816 5819 5821 5814 5818 5835 5819 5822 5831 5837 5828 5838 5843 5851 5872 5871 5871 5881 5875 5874 5875 5872 5871 5872 5866 5858 5854 5847 5840 5836 5829 5825 5817 5805 5799 5790 5782 5778 5774 5768 5762 5755 5751 5745
5814 5804 5823 5828 5829 5826 5820 5826 5834 5823 5835 5826 5847 5829 5853 5864 5866 5870 5868 5866 5866 5862 5861 5863 5859 5854 5847 5841 5835 5831 5826 5820 5809 5800 5794 5784 5779 5771 5765 5752 5761 5744 5741 5735
5820 5795 5807 5803 5820 5830 5812 5821 5827 5834 5840 5833 5840 5839 5871 5870 5877 5869 5856 5856 5855 5855 5859 5860 5857 5849 5841 5836 5831 5825 5818 5810 5801 5792 5781 5773 5765 5757 5748 5727 5729 5729 5729 5728
5813 5807 5798 5786 5815 5813 5802 5823 5825 5831 5842 5839 5823 5847 5867 5856 5854 5856 5854 5853 5855 5854 5855 5855 5852 5842 5840 5836 5831 5820 5812 5805 5795 5786 5774 5763 5758 5748 5741 5730 5724 5722 5723 5722
5795 5792 5793 5780 5791 5761 5818 5841 5835 5836 5843 5849 5849 5853 5853 5851 5858 5866 5870 5853 5854 5855 5853 5850 5847 5843 5839 5837 5829 5818 5810 5799 5791 5782 5771 5764 5755 5747 5740 5733 5730 5726 5723 5720
5806 5788 5772 5769 5777 5795 5810 5819 5795 5793 5820 5825 5824 5837 5844 5853 5851 5841 5847 5851 5853 5853 5849 5846 5841 5837 5835 5829 5823 5814 5804 5794 5786 5776 5771 5764 5760 5749 5738 5734 5731 5728 5723 5714
5793 5797 5768 5765 5752 5751 5804 5802 5813 5813 5789 5807 5809 5812 5817 5823 5809 5807 5827 5837 5844 5850 5846 5842 5837 5832 5824 5819 5815 5808 5798 5789 5782 5777 5769 5761 5756 5748 5741 5739 5732 5725 5716 5709
5767 5763 5757 5769 5759 5783 5790 5800 5809 5764 5768 5795 5800 5803 5802 5798 5807 5816 5821 5824 5835 5839 5838 5839 5837 5827 5820 5815 5807 5802 5796 5786 5782 5777 5770 5757 5747 5742 5736 5731 5725 5719 5713 5704
5755 5749 5759 5768 5750 5747 5774 5786 5763 5776 5788 5787 5790 5792 5793 5801 5809 5805 5803 5807 5820 5827 5831 5833 5830 5821 5817 5809 5801 5796 5790 5786 5778 5770 5763 5753 5746 5740 5730 5724 5719 5712 5702 5693
5747 5761 5752 5741 5746 5722 5732 5772 5777 5782 5778 5780 5781 5789 5793 5798 5803 5801 5792 5799 5813 5818 5821 5823 5817 5811 5806 5803 5798 5790 5784 5777 5769 5761 5753 5744 5736 5729 5723 5717 5709 5703 5695 5689
5747 5760 5749 5753 5766 5758 5760 5768 5771 5773 5771 5777 5784 5789 5793 5792 5800 5798 5790 5792 5804 5807 5808 5810 5807 5795 5793 5793 5790 5784 5772 5765 5760 5749 5738 5731 5727 5722 5717 5714 5708 5703 5696 5690
5755 5743 5743 5743 5756 5761 5761 5764 5765 5767 5771 5773 5779 5785 5788 5793 5798 5797 5789 5785 5791 5797 5803 5801 5795 5790 5789 5786 5778 5770 5764 5754 5747 5740 5731 5726 5720 5720 5712 5711 5705 5702 5694 5688
5745 5738 5729 5727 5745 5744 5728 5752 5759 5761 5764 5769 5769 5775 5786 5790 5795 5794 5786 5782 5781 5785 5789 5793 5792 5784 5779 5773 5765 5758 5754 5747 5741 5734 5727 5722 5717 5711 5707 5700 5694 5684 5681 5672